When you browse on this site, cookies collect data to enhance your experience and personalize the content and advertising you see.
Visit our Privacy Policy to learn more. By continuing to use the site, you agree to this use of cookies and data.
  • In Sweden
  • List of Countries
  • For 7 days
  • Water Temperature
  • Weather Map
  • Weather Widgets
  • user-avatar
    Login

    Hourly Weather Dobrovil's'ke

    Today, 26 May, Tuesday

    Time Temperature Precipitation Wind Pressure Humidity
    00:00 +10°C° 0 mm 2 mps 755 mmHg 85%
    01:00 +10°C° 0 mm 2 mps 755 mmHg 86%
    02:00 +10°C° 0 mm 3 mps 755 mmHg 91%
    03:00 +10°C° 0.1 mm 3 mps 754 mmHg 91%
    04:00 +10°C° 0.1 mm 2 mps 754 mmHg 91%
    05:00 +10°C° 0.1 mm 2 mps 754 mmHg 91%
    06:00 +12°C° 0.3 mm 2 mps 754 mmHg 88%
    07:00 +12°C° 0.3 mm 2 mps 755 mmHg 86%
    08:00 +13°C° 0.3 mm 2 mps 755 mmHg 83%
    09:00 +13°C° 0.5 mm 2 mps 755 mmHg 83%
    10:00 +13°C° 0.5 mm 2 mps 755 mmHg 83%
    11:00 +13°C° 0.5 mm 1 mps 754 mmHg 83%
    12:00 +13°C° 0.5 mm 1 mps 754 mmHg 83%
    13:00 +14°C° 0.5 mm 1 mps 754 mmHg 83%
    14:00 +14°C° 0.5 mm 1 mps 754 mmHg 83%
    15:00 +14°C° 0.2 mm 2 mps 754 mmHg 80%
    16:00 +15°C° 0.2 mm 2 mps 754 mmHg 77%
    17:00 +16°C° 0.2 mm 3 mps 754 mmHg 74%
    18:00 +14°C° 0.1 mm 3 mps 754 mmHg 80%
    19:00 +12°C° 0.1 mm 3 mps 754 mmHg 85%
    20:00 +11°C° 0.1 mm 3 mps 754 mmHg 91%
    21:00 +12°C° 0.1 mm 2 mps 754 mmHg 91%
    22:00 +10°C° 0.1 mm 2 mps 754 mmHg 91%
    23:00 +11°C° 0.1 mm 1 mps 754 mmHg 91%

    Tomorrow, 27 May, Wednesday

    Time Temperature Precipitation Wind Pressure Humidity
    00:00 +11°C° 0.1 mm 1 mps 754 mmHg 91%
    01:00 +10°C° 0.1 mm 1 mps 754 mmHg 91%
    02:00 +10°C° 0.1 mm 1 mps 754 mmHg 91%
    03:00 +10°C° 0 mm 1 mps 754 mmHg 91%
    04:00 +10°C° 0 mm 1 mps 754 mmHg 91%
    05:00 +9°C° 0 mm 2 mps 754 mmHg 92%
    06:00 +12°C° 0.1 mm 2 mps 754 mmHg 86%
    07:00 +14°C° 0.1 mm 2 mps 754 mmHg 80%
    08:00 +16°C° 0.1 mm 2 mps 754 mmHg 74%
    09:00 +17°C° 0.6 mm 2 mps 754 mmHg 68%
    10:00 +18°C° 0.6 mm 2 mps 754 mmHg 62%
    11:00 +19°C° 0.6 mm 2 mps 754 mmHg 56%
    12:00 +20°C° 0.1 mm 2 mps 754 mmHg 53%
    13:00 +21°C° 0.1 mm 2 mps 754 mmHg 49%
    14:00 +21°C° 0.1 mm 2 mps 754 mmHg 45%
    15:00 +21°C° 0 mm 2 mps 753 mmHg 46%
    16:00 +21°C° 0 mm 2 mps 753 mmHg 46%
    17:00 +21°C° 0 mm 2 mps 753 mmHg 46%
    18:00 +20°C° 0 mm 2 mps 753 mmHg 53%
    19:00 +18°C° 0 mm 2 mps 753 mmHg 59%
    20:00 +16°C° 0 mm 2 mps 753 mmHg 66%
    21:00 +16°C° 0 mm 2 mps 753 mmHg 71%
    22:00 +15°C° 0 mm 2 mps 753 mmHg 75%
    23:00 +14°C° 0 mm 1 mps 753 mmHg 80%

    Day after tomorrow, 28 May, Thursday

    Time Temperature Precipitation Wind Pressure Humidity
    00:00 +14°C° 0.1 mm 2 mps 753 mmHg 81%
    01:00 +14°C° 0.1 mm 2 mps 752 mmHg 82%
    02:00 +14°C° 0.1 mm 2 mps 752 mmHg 83%
    03:00 +14°C° 0.2 mm 2 mps 752 mmHg 84%
    04:00 +14°C° 0.2 mm 2 mps 751 mmHg 86%
    05:00 +14°C° 0.2 mm 2 mps 751 mmHg 87%
    06:00 +14°C° 0.3 mm 3 mps 751 mmHg 83%
    07:00 +16°C° 0.3 mm 3 mps 751 mmHg 79%
    08:00 +17°C° 0.3 mm 3 mps 751 mmHg 75%
    09:00 +17°C° 0.3 mm 3 mps 750 mmHg 75%
    10:00 +17°C° 0.3 mm 3 mps 750 mmHg 74%
    11:00 +18°C° 0.3 mm 3 mps 750 mmHg 74%
    12:00 +18°C° 0.5 mm 4 mps 749 mmHg 72%
    13:00 +19°C° 0.5 mm 4 mps 749 mmHg 70%
    14:00 +19°C° 0.5 mm 5 mps 749 mmHg 68%
    15:00 +19°C° 0.2 mm 5 mps 749 mmHg 68%
    16:00 +19°C° 0.2 mm 4 mps 748 mmHg 68%
    17:00 +19°C° 0.2 mm 4 mps 748 mmHg 67%
    18:00 +18°C° 0 mm 3 mps 748 mmHg 73%
    19:00 +16°C° 0 mm 3 mps 748 mmHg 78%
    20:00 +15°C° 0 mm 2 mps 749 mmHg 83%
    21:00 +14°C° 0 mm 2 mps 749 mmHg 85%
    22:00 +14°C° 0 mm 2 mps 749 mmHg 87%
    23:00 +13°C° 0 mm 2 mps 749 mmHg 89%

    29 May, Friday

    Time Temperature Precipitation Wind Pressure Humidity
    00:00 +13°C° 0 mm 2 mps 749 mmHg 89%
    01:00 +12°C° 0 mm 2 mps 748 mmHg 89%
    02:00 +12°C° 0 mm 2 mps 748 mmHg 89%
    03:00 +12°C° 0 mm 2 mps 748 mmHg 89%
    04:00 +12°C° 0 mm 2 mps 748 mmHg 88%
    05:00 +12°C° 0 mm 2 mps 749 mmHg 88%
    06:00 +14°C° 0 mm 2 mps 749 mmHg 81%
    07:00 +16°C° 0 mm 2 mps 749 mmHg 74%
    08:00 +18°C° 0 mm 2 mps 749 mmHg 67%
    09:00 +19°C° 0 mm 3 mps 749 mmHg 62%
    10:00 +20°C° 0 mm 3 mps 749 mmHg 58%
    11:00 +22°C° 0 mm 4 mps 749 mmHg 53%
    12:00 +22°C° 0.1 mm 4 mps 748 mmHg 53%
    13:00 +22°C° 0.1 mm 4 mps 748 mmHg 53%
    14:00 +22°C° 0.1 mm 5 mps 747 mmHg 53%
    15:00 +22°C° 0 mm 5 mps 747 mmHg 54%
    16:00 +22°C° 0 mm 5 mps 747 mmHg 55%
    17:00 +22°C° 0 mm 4 mps 747 mmHg 56%
    18:00 +20°C° 0 mm 4 mps 747 mmHg 64%
    19:00 +19°C° 0 mm 4 mps 747 mmHg 71%
    20:00 +17°C° 0 mm 4 mps 747 mmHg 79%
    21:00 +17°C° 0 mm 4 mps 746 mmHg 80%
    22:00 +16°C° 0 mm 5 mps 746 mmHg 82%
    23:00 +15°C° 0 mm 5 mps 746 mmHg 83%

    30 May, Saturday

    Time Temperature Precipitation Wind Pressure Humidity
    00:00 +15°C° 0.1 mm 5 mps 745 mmHg 86%
    01:00 +14°C° 0.1 mm 5 mps 745 mmHg 89%
    02:00 +14°C° 0.1 mm 5 mps 744 mmHg 92%
    03:00 +14°C° 2 mm 5 mps 744 mmHg 93%
    04:00 +14°C° 2 mm 6 mps 744 mmHg 93%
    05:00 +14°C° 2 mm 6 mps 744 mmHg 94%
    06:00 +14°C° 2.8 mm 7 mps 744 mmHg 93%
    07:00 +14°C° 2.8 mm 7 mps 744 mmHg 93%
    08:00 +13°C° 2.8 mm 8 mps 744 mmHg 93%
    09:00 +14°C° 0.7 mm 7 mps 745 mmHg 91%
    10:00 +14°C° 0.7 mm 7 mps 745 mmHg 89%
    11:00 +14°C° 0.7 mm 7 mps 745 mmHg 87%
    12:00 +15°C° 0.7 mm 6 mps 745 mmHg 86%
    13:00 +15°C° 0.7 mm 6 mps 745 mmHg 85%
    14:00 +15°C° 0.7 mm 5 mps 746 mmHg 84%
    15:00 +16°C° 0.8 mm 5 mps 746 mmHg 83%
    16:00 +16°C° 0.8 mm 5 mps 746 mmHg 81%
    17:00 +17°C° 0.8 mm 5 mps 747 mmHg 79%
    18:00 +16°C° 0.4 mm 5 mps 747 mmHg 81%
    19:00 +15°C° 0.4 mm 5 mps 747 mmHg 83%
    20:00 +15°C° 0.4 mm 5 mps 747 mmHg 85%
    21:00 +14°C° 0 mm 5 mps 747 mmHg 84%
    22:00 +14°C° 0 mm 5 mps 747 mmHg 84%
    23:00 +13°C° 0 mm 5 mps 748 mmHg 84%

    31 May, Sunday

    Time Temperature Precipitation Wind Pressure Humidity
    00:00 +13°C° 0 mm 5 mps 748 mmHg 84%
    01:00 +12°C° 0 mm 5 mps 748 mmHg 85%
    02:00 +12°C° 0 mm 5 mps 748 mmHg 85%
    03:00 +10°C° 0 mm 5 mps 748 mmHg 86%
    04:00 +10°C° 0 mm 5 mps 748 mmHg 87%
    05:00 +10°C° 0 mm 5 mps 748 mmHg 89%
    06:00 +11°C° 0 mm 6 mps 748 mmHg 86%
    07:00 +13°C° 0 mm 6 mps 749 mmHg 83%
    08:00 +14°C° 0 mm 6 mps 749 mmHg 80%
    09:00 +16°C° 0 mm 7 mps 749 mmHg 74%
    10:00 +17°C° 0 mm 7 mps 749 mmHg 68%
    11:00 +18°C° 0 mm 7 mps 749 mmHg 62%
    12:00 +20°C° 0 mm 7 mps 749 mmHg 59%
    13:00 +21°C° 0 mm 7 mps 749 mmHg 55%
    14:00 +21°C° 0 mm 7 mps 749 mmHg 52%
    15:00 +21°C° 0 mm 7 mps 749 mmHg 53%
    16:00 +21°C° 0 mm 7 mps 749 mmHg 55%
    17:00 +20°C° 0 mm 6 mps 749 mmHg 56%
    18:00 +19°C° 0 mm 6 mps 749 mmHg 61%
    19:00 +16°C° 0 mm 5 mps 749 mmHg 66%
    20:00 +15°C° 0 mm 4 mps 749 mmHg 71%
    21:00 +14°C° 0 mm 4 mps 749 mmHg 73%
    22:00 +13°C° 0 mm 4 mps 749 mmHg 75%
    23:00 +13°C° 0 mm 4 mps 750 mmHg 77%
    Show more